Location: Fontevrault
(47.1823°N, 0.0493°E)
Time: 07:46:42
(UTC+00:00)

Cosmos 2263 Rocket - Pass Details

Date: 25 October 2021
Orbit: 825 x 847 km, 71.0° (Epoch: 01 December)

Event Time Altitude Azimuth Distance (km) Brightness Sun altitude
Rises 18:14:48 0° 324° (NW) 3,373 5.8 -14.3°
Reaches altitude 10° 18:17:30 10° 314° (NW) 2,434 5.2 -14.7°
Maximum altitude 18:22:13 29° 256° (WSW) 1,467 4.3 -15.5°
Drops below altitude 10° 18:26:56 10° 197° (SSW) 2,423 4.8 -16.3°
Sets 18:29:38 0° 187° (S) 3,353 5.4 -16.8°
